星链-4591 (STARLINK-4591 )

导读 | 星芒AI

STARLINK-4591 是 SpaceX Starlink 卫星互联网项目中的一颗低轨道卫星,属于第 12 批次发射的 Starlink 卫星群。该卫星于 2021 年 12 月 3 日由猎鹰 9 号火箭从卡纳维拉尔角发射升空。它运行在约 550 公里的高度,旨在为全球用户提供高速互联网接入服务。STARLINK-4591 采用先进的相控阵天线和激光通信技术,支持高带宽、低延迟的通信连接,是 SpaceX 构建全球宽带网络的重要组成部分。

基本信息
目录编号:
53607
目录名称:
STARLINK-4591
国际标识:
2022-104V
轨道中心:
EARTH
卫星名称:
星链-4591
卫星全名:
星链-4591 (STARLINK-4591 )
卫星状态:
在轨 (已飞行1211 天)
发射日期:
2022-08-28 UTC
国别 :
美国 (US)
星等 :
--
轨道信息
数据来源 国际轨道数据
星历时间: 2025-12-21T09:23:59+0800
7小时前
查看轨道信息
半长轴: 6917.979km
偏心率: 0.0001455
轨道倾角: 53.215°
近地点辐角 88.801°
升交点赤经 232.161°
平近点角 271.315°
近地点: 538.835km
远地点: 540.849km
周期: 95.440分钟
每日圈数: 15.088078
详细信息
固有亮度:
5
最大亮度:
2.5
卫星平台:
Starlink v1.5
覆盖范围:
全球
运营商:
太空探索技术公司
运营商所在国:
美国
制造商(研发单位):
太空探索技术公司
制造商所在国:
美国
使用方式:
暂无
卫星简介
星链(Starlink)计划是由太空探索技术公司(SpaceX)提出的一个巨型低轨卫星互联网星座项目,计划在2019年至2024年间在太空搭建由约1.2万颗卫星组成的“星链”网络,其中1584颗将部署在地球上空550千米处的近地轨道,并从2020年开始工作。该卫星仍在工作。
2D轨道图
3D轨道图
轨道高度分析图
轨道倾角分析图
轨道综合分析图
查看轨道综合分析图